Miscellaneous Local Product
Issued by NWS Hastings, NE

Home | Current Version | Previous Version | Text Only | Print | Product List | Glossary On
Versions: 1 2 3 4 5 6 7 8 9 10 11 12 13 14 15 16 17 18 19 20 21 22 23 24 25 26 27 28 29 30 31 32 33 34 35 36 37 38 39 40 41 42 43 44 45 46 47 48 49 50
349
AXUS43 KGID 111002
MISGRI

GID CWA HOURLY WEATHER ROUNDUP
NATIONAL WEATHER SERVICE HASTINGS NE
400 AM CST SUN DEC 11 2016

NOTE: "FAIR" INDICATES FEW OR NO CLOUDS BELOW 12,000 FEET WITH NO
SIGNIFICANT WEATHER AND/OR OBSTRUCTIONS TO VISIBILITY.

...SOUTH CENTRAL NEBRASKA...

CITY           SKY/WX    TMP DP  RH WIND       PRES   REMARKS
GRAND ISLAND   CLOUDY    22  20  92 SW5       29.72R WCI  16
HASTINGS       CLOUDY    24  21  88 CALM      29.71R
KEARNEY        CLOUDY    23  19  86 CALM      29.70F
ORD            CLOUDY    21  17  84 NW7       29.72R WCI  12
YORK           PTCLDY    25  21  86 S3        29.72R
AURORA         PTCLDY    25  20  82 CALM      29.72R
LEXINGTON      CLOUDY    23  20  89 NW5       29.70F WCI  17
HOLDREGE       CLOUDY    20  19  93 NW3       29.70S
HEBRON         PTCLDY    24  21  88 CALM      29.73S

...NEBRASKA PANHANDLE...

CITY           SKY/WX    TMP DP  RH WIND       PRES   REMARKS
CHADRON        CLOUDY    12   7  80 CALM      29.84R
ALLIANCE       CLOUDY    20  14  77 NE3       29.77R
SCOTTSBLUFF    CLOUDY    31  23  72 NW7       29.80R WCI  24
SIDNEY         CLOUDY    34  23  64 N17       29.76S WCI  23

...WESTERN AND NORTH CENTRAL NEBRASKA...

CITY           SKY/WX    TMP DP  RH WIND       PRES   REMARKS
VALENTINE      CLOUDY    11   7  84 NW12      29.83R FOG     WCI  -3
AINSWORTH      CLOUDY    13  12  95 NW21      29.82R FOG     WCI  -5
ONEILL         CLOUDY    22  20  92 CALM      29.75R
BROKEN BOW     CLOUDY    22  18  85 NW21G26   29.74R WCI   6
IMPERIAL       CLOUDY    31  23  72 N17       29.74R WCI  19
NORTH PLATTE   CLOUDY    25  17  72 N18G25    29.74R WCI  11
MCCOOK         CLOUDY    21  19  92 NW10      29.69S WCI  10

...EASTERN NEBRASKA...

CITY           SKY/WX    TMP DP  RH WIND       PRES   REMARKS
NORFOLK        CLOUDY    20  16  84 CALM      29.76R
SO SIOUX CITY  CLOUDY    27  21  78 E8        29.79F WCI  19
TEKAMAH        CLOUDY    24  18  77 S5        29.78F WCI  18
COLUMBUS       CLOUDY    21  16  79 CALM      29.77R
ALBION         PTCLDY    20  18  89 CALM      29.73F
OMAHA EPPLEY   CLOUDY    32  21  64 SE9       29.79F WCI  24
OFFUTT AFB     CLOUDY    33  22  66 E9        29.78F WCI  25
MILLARD        PTCLDY    31  22  70 SE3       29.77F
LINCOLN        PTCLDY    30  22  72 SE6       29.76F WCI  24
NEBRASKA CITY  CLOUDY    33  20  57 S13       29.76F WCI  24
BEATRICE       CLOUDY    33  26  75 SE6       29.73F WCI  28
FALLS CITY     CLOUDY    37  26  64 SE8       29.78F WCI  31

...NORTHERN KANSAS...

CITY           SKY/WX    TMP DP  RH WIND       PRES   REMARKS
GOODLAND       CLOUDY    35  26  69 NW15      29.70R WCI  25
HILL CITY      CLOUDY    24  21  88 N5        29.68R WCI  18
NORTON         SUNNY     21  18  86 CALM      29.67S
PHILLIPSBURG   CLEAR     25  25 100 NW5       29.70F WCI  19
SMITH CENTER   CLEAR     25  23  93 E6        29.70S WCI  18
BELOIT         CLEAR     28  25  86 E6        29.69F WCI  22
HAYS           CLOUDY    25  24  96 N6        29.67  WCI  18
RUSSELL        CLOUDY    29  27  92 SE6       29.64F WCI  23
CONCORDIA      CLOUDY    31  27  85 E3        29.70F
SALINA         CLOUDY    42  37  82 S8        29.70F
TOPEKA         CLOUDY    42  33  70 SE9       29.78F



USA.gov is the U.S. government's official web portal to all federal, state and local government web resources and services.